EW1390 Weather Reports


time (UTC)temp
C
wind
direction
speed
KPH
gust
KPH
rain 1hr
cm
rain 24hr
cm
rain mn
cm
humidity
%
barometer
mb
20260507231559 27 277 1.6 11.3 0.00 0.03 0.03 55 1008.0
20260507230056 27 232 1.6 4.8 0.00 0.03 0.03 54 1008.2
20260507224600 27 242 0.0 9.7 0.00 0.03 0.03 55 1008.4
20260507223051 27 346 1.6 8.0 0.00 0.03 0.03 56 1008.5
20260507221548 27 334 1.6 6.4 0.00 0.03 0.03 55 1008.8
20260507220045 26 217 1.6 11.3 0.00 0.03 0.03 52 1009.0
20260507214543 26 234 0.0 9.7 0.00 0.03 0.03 55 1009.1
20260507213047 26 255 1.6 8.0 0.00 0.03 0.03 55 1009.2
20260507211536 26 254 1.6 4.8 0.00 0.03 0.03 53 1009.5
20260507210100 25 242 3.2 9.7 0.00 0.03 0.03 56 1009.6
20260507204530 25 293 1.6 8.0 0.00 0.03 0.03 57 1009.8
20260507203027 25 355 1.6 6.4 0.00 0.03 0.03 56 1009.9
20260507201525 24 314 1.6 8.0 0.00 0.03 0.03 59 1010.2
20260507200034 24 207 1.6 8.0 0.00 0.03 0.03 60 1010.2
20260507194519 24 223 3.2 11.3 0.00 0.03 0.03 59 1010.3
20260507193024 24 171 0.0 14.5 0.00 0.03 0.03 58 1010.5
20260507191522 24 86 1.6 6.4 0.00 0.03 0.03 59 1010.5
20260507190014 23 144 0.0 4.8 0.00 0.03 0.03 61 1010.7
20260507184505 23 219 0.0 11.3 0.00 0.03 0.03 63 1010.9
20260507183004 22 251 1.6 6.4 0.00 0.03 0.03 62 1010.9
20260507181600 22 218 3.2 8.0 0.00 0.03 0.03 63 1011.0
20260507180058 21 114 1.6 6.4 0.00 0.03 0.03 68 1011.0
20260507174559 21 120 0.0 8.0 0.00 0.03 0.03 72 1011.1
20260507173116 20 140 0.0 8.0 0.00 0.03 0.03 76 1011.1
20260507171546 18 229 0.0 4.8 0.00 0.03 0.03 81 1011.3
20260507170045 17 202 0.0 4.8 0.00 0.03 0.03 87 1011.3
20260507164537 16 234 0.0 3.2 0.03 0.03 0.03 91 1011.4
20260507163036 15 234 0.0 3.2 0.03 0.03 0.03 95 1011.6
20260507161529 15 234 0.0 0.0 0.03 0.03 0.03 96 1011.5
20260507160038 13 234 0.0 0.0 0.03 0.03 0.03 96 1011.6
20260507154520 13 234 0.0 0.0 0.00 0.00 0.00 96 1011.7
20260507153020 12 234 0.0 0.0 0.00 0.00 0.00 96 1011.6
20260507151512 11 234 0.0 0.0 0.00 0.00 0.00 95 1011.7
20260507150012 10 234 0.0 0.0 0.00 0.00 0.00 95 1011.6
20260507144524 10 234 0.0 0.0 0.00 0.00 0.00 95 1011.8
20260507143010 10 234 0.0 0.0 0.00 0.00 0.00 95 1011.8
20260507141509 9 234 0.0 0.0 0.00 0.00 0.00 94 1011.8
20260507140009 9 234 0.0 0.0 0.00 0.00 0.00 95 1011.8
20260507134508 9 234 0.0 0.0 0.00 0.00 0.00 94 1011.6
20260507133012 9 234 0.0 0.0 0.00 0.00 0.00 94 1011.5
20260507131506 9 234 0.0 0.0 0.00 0.00 0.00 94 1011.4
20260507130107 9 234 0.0 0.0 0.00 0.00 0.00 94 1011.3
20260507124505 9 234 0.0 0.0 0.00 0.00 0.00 94 1011.2
20260507123005 9 234 0.0 0.0 0.00 0.00 0.00 94 1011.2
20260507121503 9 234 0.0 0.0 0.00 0.00 0.00 94 1011.2
20260507120001 9 234 0.0 0.0 0.00 0.00 0.00 93 1011.1
20260507114604 9 234 0.0 0.0 0.00 0.00 0.00 93 1011.1
20260507113059 9 234 0.0 0.0 0.00 0.00 0.00 93 1011.1
20260507111602 9 234 0.0 0.0 0.00 0.00 0.00 93 1011.1
20260507110156 10 234 0.0 0.0 0.00 0.00 0.00 93 1011.2
20260507104554 10 234 0.0 0.0 0.00 0.00 0.00 93 1011.2
20260507103052 10 234 0.0 0.0 0.00 0.00 0.00 93 1011.2
20260507101602 10 234 0.0 0.0 0.00 0.00 0.00 93 1011.2
20260507100049 10 234 0.0 0.0 0.00 0.00 0.00 93 1011.2
20260507094548 10 234 0.0 0.0 0.00 0.00 0.00 93 1011.3
20260507093047 10 234 0.0 0.0 0.00 0.00 0.00 93 1011.4
20260507091544 10 234 0.0 0.0 0.00 0.00 0.00 93 1011.6
20260507090043 10 234 0.0 0.0 0.00 0.00 0.00 93 1011.7
20260507084543 10 234 0.0 0.0 0.00 0.00 0.00 92 1011.7
20260507083040 10 234 0.0 0.0 0.00 0.00 0.00 92 1011.8
20260507081538 10 234 0.0 0.0 0.00 0.00 0.00 92 1011.8
20260507080039 11 234 0.0 0.0 0.00 0.00 0.00 92 1011.8
20260507074535 11 234 0.0 0.0 0.00 0.00 0.00 92 1011.8
20260507073033 11 234 0.0 0.0 0.00 0.00 0.00 92 1011.8
20260507071530 11 234 0.0 0.0 0.00 0.00 0.00 91 1011.9
20260507070029 11 234 0.0 0.0 0.00 0.00 0.00 91 1011.9
20260507064529 11 234 0.0 0.0 0.00 0.00 0.00 91 1011.9
20260507063031 12 234 0.0 0.0 0.00 0.00 0.00 91 1011.9
20260507061529 12 234 0.0 3.2 0.00 0.00 0.00 90 1011.8
20260507060035 12 234 0.0 0.0 0.00 0.00 0.00 90 1011.8
20260507054526 12 234 0.0 0.0 0.00 0.00 0.00 90 1011.8
20260507053027 12 234 0.0 0.0 0.00 0.00 0.00 89 1011.5
20260507051526 12 234 0.0 1.6 0.00 0.00 0.00 88 1011.7
20260507050034 13 234 0.0 0.0 0.00 0.00 0.00 88 1011.8
20260507044524 13 234 0.0 0.0 0.00 0.00 0.00 87 1011.9
20260507043024 13 234 0.0 0.0 0.00 0.00 0.00 86 1011.9
20260507041538 14 234 0.0 0.0 0.00 0.00 0.00 86 1011.7
20260507040022 14 234 0.0 0.0 0.00 0.00 0.00 84 1011.5
20260507034522 15 234 0.0 0.0 0.00 0.00 0.00 83 1011.3
20260507033022 15 234 0.0 0.0 0.00 0.00 0.00 82 1011.1
20260507031521 16 234 0.0 0.0 0.00 0.00 0.00 80 1011.0
20260507030020 17 234 0.0 0.0 0.00 0.00 0.00 78 1010.9
20260507024520 17 234 0.0 1.6 0.00 0.00 0.00 76 1010.7
20260507023019 18 234 0.0 3.2 0.00 0.00 0.00 72 1010.6
20260507021518 19 254 0.0 3.2 0.00 0.00 0.00 68 1010.5
20260507020021 20 252 0.0 11.3 0.00 0.00 0.00 66 1010.5
20260507014525 21 225 1.6 6.4 0.00 0.00 0.00 62 1010.5
20260507013033 21 221 0.0 6.4 0.00 0.00 0.00 61 1010.4
20260507011530 22 221 0.0 4.8 0.00 0.00 0.00 62 1010.3
20260507010015 22 259 0.0 6.4 0.00 0.00 0.00 61 1010.4
20260507004517 22 251 0.0 9.7 0.00 0.00 0.00 61 1010.5
20260507003013 22 234 1.6 8.0 0.00 0.00 0.00 59 1010.3
20260507001512 22 263 0.0 6.4 0.00 0.00 0.00 61 1010.3
20260507000022 22 219 1.6 6.4 0.00 0.00 0.00 60 1010.4
20260506234510 22 262 1.6 6.4 0.00 0.00 0.00 58 1010.5
20260506233008 22 244 0.0 11.3 0.00 0.00 0.00 60 1010.6